Temperature
13 13 14 14 12 11 12 13 15 16 17 19 20 20 19 19 20 20 20 21 21 21 20 20 19 19 19 19 19 19 19 19 19 18 18 18 18 18 17 17 17 17 16 16 16 16 16 16 15
13 13 13 13 11 12 12 13 15 16 18 19 20 20 19 20 21 20 20 20 20 20 20 19 19 18 18 18 18 18 18 18 18 18 18 18 18 17 17 17 16 16 16 16 16 15 15 15 15
12 13 13 10 11 11 13 14 15 16 17 18 18 19 19 19 19 19 19 19 19 19 19 19 18 18 18 17 17 18 18 18 18 18 18 17 17 17 17 16 16 16 16 16 15 15 15 15 15
12 12 12 10 11 12 13 14 14 15 16 17 17 17 18 18 18 18 18 19 19 18 18 18 18 18 17 17 17 17 17 17 17 17 17 17 17 17 16 16 16 16 16 15 15 15 15 15 14
12 11 10 10 11 12 12 13 14 13 14 15 15 14 16 17 17 17 18 18 18 18 17 17 17 17 17 17 17 17 17 17 17 17 17 16 16 16 16 16 16 15 15 15 15 15 15 14 14
11 9 9 9 10 12 12 13 13 12 13 13 13 13 15 16 17 17 17 17 17 17 17 17 17 17 17 17 17 17 17 17 17 16 16 16 16 16 16 16 16 15 15 15 15 15 15 14 14
10 8 8 9 10 11 12 13 12 11 11 12 13 12 14 15 15 15 16 16 16 16 16 16 16 16 16 16 16 16 16 16 16 16 16 16 16 16 16 16 15 15 15 15 15 15 14 14 13
10 8 8 9 9 10 11 11 11 11 11 12 12 12 12 13 14 14 15 15 16 16 15 15 16 16 16 16 16 16 16 16 16 16 16 16 16 16 15 15 15 15 15 15 15 14 14 14 13
10 7 7 8 9 9 10 10 10 11 11 11 11 12 12 12 12 13 13 14 15 15 15 15 15 15 15 15 16 16 16 16 16 16 16 15 15 15 15 15 15 15 14 14 14 14 14 13 13
9 6 7 9 9 9 9 9 9 10 9 10 11 11 12 12 11 12 12 13 13 14 14 14 14 14 15 15 15 15 15 15 15 15 15 15 15 15 15 15 15 14 14 14 14 14 13 13 13
8 7 8 8 9 9 8 9 9 9 8 9 10 10 11 11 11 11 11 12 12 13 13 14 14 14 14 14 14 15 15 15 15 15 15 15 15 15 14 14 14 14 14 14 13 13 13 13 12
7 7 8 8 8 8 8 8 8 8 9 10 10 10 10 10 10 11 11 11 12 12 12 13 13 13 13 13 14 14 14 14 14 14 14 14 14 14 14 14 14 14 14 14 13 13 13 12 12
6 6 7 8 8 8 8 8 8 8 9 9 9 9 10 10 10 10 11 11 11 11 12 12 12 13 13 13 13 13 14 14 14 14 14 14 14 14 14 14 14 14 14 13 13 13 13 12 12
6 6 6 7 7 7 7 7 7 8 9 9 9 9 9 9 9 10 10 10 10 11 11 11 12 12 12 12 13 13 13 13 14 14 14 14 14 14 14 14 14 14 14 13 13 13 13 12 12
6 5 5 6 7 7 7 6 7 9 9 8 8 8 8 8 9 9 9 9 10 10 10 11 11 11 12 12 12 13 13 13 13 13 14 13 14 14 14 14 14 14 13 13 13 12 12 12 11
5 4 4 6 7 7 6 5 7 8 8 7 7 7 8 8 8 8 8 9 9 10 10 10 11 11 11 11 12 12 12 12 13 13 13 13 13 13 14 14 14 14 13 13 13 12 12 12 11
3 3 3 5 6 6 6 5 6 8 7 7 7 7 7 7 8 8 8 8 9 9 9 9 10 10 10 11 11 11 11 12 12 12 13 13 13 13 13 13 14 13 13 13 13 12 12 11 11
3 3 3 4 5 5 5 5 6 7 6 6 6 6 6 6 7 7 7 8 8 9 9 9 10 10 10 10 11 11 11 11 11 12 12 12 12 13 13 13 13 13 13 13 12 12 11 11 11
4 3 3 4 5 5 4 5 6 6 5 5 5 5 5 6 6 6 7 7 8 8 8 9 9 9 9 10 10 10 10 11 11 11 12 12 12 12 13 13 13 13 13 13 12 12 11 11 10
4 3 3 4 5 5 4 4 5 5 5 5 5 5 5 5 5 6 6 7 7 8 8 8 8 9 9 9 9 9 10 10 11 11 11 11 12 12 12 12 12 13 12 12 12 12 11 10 10
4 3 3 3 4 4 3 3 4 5 5 5 5 4 4 5 5 5 6 6 6 7 7 8 8 8 8 9 9 9 9 9 10 10 10 11 11 12 12 12 12 13 13 12 12 12 12 11 10
3 4 4 4 2 1 3 2 3 4 4 4 4 4 4 4 4 5 5 5 6 6 7 7 7 8 8 8 8 8 8 9 9 10 10 11 11 11 12 12 12 12 13 13 12 12 12 11 10
4 4 4 3 2 1 2 1 2 3 3 3 3 4 4 4 4 4 4 5 5 6 6 7 7 7 8 8 8 8 8 8 9 9 10 10 10 11 11 12 12 12 12 12 12 12 12 11 11
4 3 2 1 0 0 2 1 2 2 3 3 3 4 4 4 4 4 4 4 5 5 6 6 6 7 7 7 7 8 8 8 9 9 9 10 10 11 11 11 12 12 12 12 12 12 12 11 11
3 1 0 -0 -2 -0 2 2 2 3 3 3 3 4 4 4 4 4 4 4 4 4 5 5 6 6 7 7 7 7 7 8 8 9 9 9 10 10 10 11 11 12 12 12 12 12 11 11 11
2 1 0 -0 -0 1 2 2 2 3 3 4 4 4 4 4 4 4 3 3 4 4 4 5 5 6 6 7 7 7 7 8 8 8 9 9 10 10 11 11 11 11 12 12 12 11 11 11 11
2 1 1 -0 -1 -1 1 1 2 3 3 3 3 3 3 4 3 3 3 3 3 3 3 4 5 5 6 6 7 7 7 8 8 8 9 9 10 10 10 11 11 11 11 12 11 11 11 11 11
2 1 -1 -1 -1 -1 -0 0 1 2 2 2 2 2 3 3 3 3 3 3 3 3 3 4 4 5 5 6 6 7 7 7 8 8 9 9 10 10 10 11 11 11 11 11 11 11 11 11 11
1 1 0 -1 -1 -1 -1 1 2 1 2 2 2 3 3 3 3 3 3 3 3 3 3 4 4 5 5 6 6 7 7 7 7 8 8 9 9 10 10 10 10 11 11 11 11 11 11 11 11
1 0 -0 -1 -1 -2 -1 1 3 2 2 2 2 3 3 3 3 3 3 2 2 2 2 3 3 4 5 5 6 6 7 7 7 7 8 8 9 10 10 10 10 10 11 11 11 11 11 11 11
Wind_Speed
12 11 2 4 4 1 6 7 5 4 4 3 2 2 3 4 3 3 2 3 3 8 10 14 15 16 17 18 19 19 20 20 20 20 21 21 21 22 22 21 21 20 20 20 19 19 19 18 18
9 4 4 4 3 4 7 6 7 7 6 5 5 2 2 3 1 2 3 4 3 6 8 11 14 15 16 17 18 19 19 20 20 20 21 21 21 21 21 21 21 20 20 20 19 19 18 18 17
6 2 3 3 5 8 6 3 4 6 6 5 5 4 2 3 2 1 4 2 3 3 5 10 14 15 15 16 17 19 20 20 20 21 21 22 22 22 21 21 21 20 20 20 19 19 18 18 17
3 4 3 2 10 7 5 5 5 7 6 5 5 6 4 3 2 2 5 5 4 1 3 8 13 14 15 16 16 17 19 20 21 21 22 22 22 22 21 21 21 20 20 20 20 19 19 18 17
4 3 1 4 9 6 5 7 7 7 6 7 7 7 8 4 4 5 6 6 4 2 1 6 11 13 14 15 16 17 18 20 21 22 23 23 23 22 21 21 21 21 21 21 20 19 19 18 16
4 3 2 6 8 5 3 5 4 6 7 8 7 8 7 4 9 8 6 5 3 2 1 2 9 11 12 14 15 17 17 19 21 22 23 23 23 23 22 22 22 22 22 21 21 20 19 18 17
3 2 4 5 5 5 4 5 3 5 8 7 6 7 7 8 11 11 7 5 4 2 1 1 3 8 10 11 13 16 17 17 19 21 22 23 23 24 24 23 23 22 22 22 21 20 19 18 17
4 2 2 4 5 4 4 5 3 6 8 6 4 4 7 13 17 15 10 6 4 3 2 2 3 3 6 9 12 13 15 17 17 19 21 22 23 24 24 23 23 23 23 22 22 21 20 18 17
3 2 4 4 4 5 6 8 8 8 6 8 6 8 11 14 15 14 13 9 7 7 3 3 3 3 4 6 10 12 13 15 16 15 18 19 17 19 20 22 23 24 24 23 22 21 20 18 16
3 4 6 4 3 6 8 9 10 8 11 11 12 12 11 11 12 12 12 11 8 9 7 4 5 5 4 6 6 8 10 11 12 12 14 14 14 15 17 21 23 24 24 23 22 21 20 15 12
2 5 4 6 6 7 10 11 8 8 12 13 14 16 14 14 14 14 12 11 10 9 9 7 5 6 6 4 5 5 6 7 9 12 12 12 12 12 13 13 16 19 20 17 18 17 14 12 10
2 5 6 7 7 8 10 10 9 11 15 14 15 15 14 15 15 15 14 12 10 10 9 8 7 5 6 5 5 5 6 6 7 10 12 10 8 9 9 9 11 12 12 12 12 10 11 10 11
3 5 7 9 11 11 12 12 13 15 17 15 15 16 15 15 15 14 13 13 10 10 10 8 7 6 5 5 5 5 7 7 9 9 11 12 9 10 10 9 10 11 12 12 10 10 10 8 8
4 7 11 11 12 8 10 14 10 13 12 12 13 14 14 13 13 13 12 12 11 10 10 9 8 8 6 6 6 6 6 7 8 9 11 13 11 11 11 10 10 11 13 13 12 11 10 8 7
5 7 10 7 7 5 7 11 8 12 11 12 12 12 13 12 11 11 12 12 11 11 10 10 9 8 8 8 8 6 6 7 8 9 12 13 13 13 12 12 11 11 14 14 11 10 9 8 7
4 4 6 7 6 5 4 12 12 11 11 12 12 11 12 12 11 11 12 11 11 11 10 10 9 9 8 8 8 6 6 7 8 9 11 13 14 15 13 12 12 13 13 11 11 11 9 9 8
3 4 7 9 5 4 4 13 14 12 10 12 11 11 11 12 11 11 10 10 10 9 9 9 9 9 9 9 8 8 8 8 8 9 10 12 13 16 14 12 12 14 12 10 12 10 9 10 9
5 6 7 9 7 8 11 16 18 13 9 10 10 11 11 12 12 11 11 11 9 8 7 8 8 9 9 7 6 7 7 8 8 9 11 13 13 16 15 12 14 14 12 11 11 12 10 9 9
5 7 13 13 11 9 13 17 17 12 8 8 9 10 10 12 11 9 9 10 8 7 8 7 7 8 7 6 6 7 8 8 8 9 12 14 14 15 15 13 15 15 13 14 14 10 12 9 8
6 9 11 12 8 11 13 16 11 9 6 6 8 10 10 11 12 11 11 10 8 7 7 8 8 8 8 7 7 6 7 8 9 9 11 14 15 16 15 16 15 15 13 14 14 12 9 7 9
8 8 9 13 15 6 7 9 5 6 4 6 7 8 9 10 11 12 11 10 10 8 8 8 8 9 9 8 6 5 5 5 7 8 10 13 15 17 16 17 15 16 16 15 16 16 12 11 8
8 7 10 12 9 6 3 7 7 8 8 8 8 9 10 10 9 10 10 11 11 10 9 9 8 9 8 6 6 7 8 8 8 8 9 12 15 17 17 18 17 16 15 16 17 16 12 14 12
7 8 10 10 6 5 3 4 9 6 8 10 9 9 10 9 9 9 10 10 10 10 10 9 9 7 7 6 7 8 8 7 7 7 11 12 13 16 17 17 17 17 15 16 16 15 15 13 12
4 6 6 3 2 3 4 3 7 4 6 8 8 9 10 9 9 9 9 10 10 10 10 10 9 8 6 5 7 7 8 7 7 9 10 11 11 12 16 16 16 17 15 17 16 16 18 14 12
4 5 6 7 5 6 4 4 8 7 6 6 8 9 9 9 9 10 11 11 11 12 12 11 10 8 7 6 6 7 8 8 8 8 10 11 10 10 15 15 16 16 15 16 15 16 17 16 16
1 4 3 3 5 7 5 6 7 6 6 6 7 7 8 9 9 10 10 10 10 11 12 11 11 10 8 7 7 6 7 7 7 9 9 11 11 11 15 16 16 17 16 16 15 14 15 15 15
1 2 4 3 4 6 7 7 8 6 7 7 7 7 8 9 9 10 11 11 11 11 11 10 10 11 10 9 7 7 7 7 8 9 9 9 10 11 15 15 16 17 17 17 16 14 15 15 14
4 4 4 2 3 6 8 7 6 7 8 8 8 8 9 10 10 11 10 11 11 11 11 10 10 10 10 9 6 5 5 7 7 8 9 9 10 11 15 16 16 17 17 17 16 13 14 15 13
2 2 3 3 4 4 7 8 6 7 8 8 9 9 9 10 10 10 10 10 10 11 11 11 11 11 10 9 7 5 5 6 6 7 8 7 8 10 13 16 16 17 17 17 16 15 16 16 14
6 6 6 4 6 5 6 11 6 7 8 8 9 10 10 10 10 10 10 10 10 11 11 11 11 10 10 10 8 6 5 4 5 5 5 5 6 8 11 13 15 16 17 17 17 17 17 17 17
Wind_Direction
335 333 13 56 66 96 239 240 241 275 265 245 247 182 183 208 196 201 282 20 105 150 166 175 175 175 172 170 166 164 163 162 160 158 156 153 152 150 149 148 147 146 144 141 138 134 131 129 126
335 339 49 71 131 209 247 235 234 248 265 309 316 308 300 262 226 97 13 350 109 148 164 174 179 177 175 173 171 168 167 167 165 164 161 159 157 155 153 152 151 149 146 142 139 136 134 133 131
333 19 85 110 188 207 219 226 243 282 302 317 316 313 296 304 14 40 322 18 89 133 167 179 182 183 180 178 175 174 172 171 170 169 166 164 162 160 158 156 154 151 148 144 141 139 138 136 135
33 44 59 181 230 233 242 298 324 322 330 339 336 312 311 328 1 324 357 40 60 101 181 189 186 186 187 183 181 179 178 176 174 174 172 169 166 165 162 159 156 153 150 147 145 143 142 141 139
57 79 120 237 245 256 281 307 325 327 322 333 347 315 300 309 359 11 19 26 28 3 242 203 194 192 190 190 187 184 184 182 180 178 176 174 170 167 164 161 158 155 153 150 149 147 146 144 143
52 73 169 236 249 270 305 321 317 318 315 324 339 315 285 310 1 353 354 357 12 11 332 229 206 200 198 196 194 191 189 189 186 183 180 178 174 170 167 164 162 160 157 154 153 152 150 148 145
101 114 210 244 270 284 307 330 347 314 310 304 317 305 287 312 338 333 330 339 347 359 5 316 234 213 204 200 202 199 196 193 191 187 183 179 177 174 171 168 165 163 161 158 157 155 153 151 149
124 112 237 256 263 267 317 333 315 311 294 296 310 292 288 304 320 324 321 323 326 325 303 293 283 256 225 210 204 201 200 198 194 190 185 179 178 177 174 170 168 167 164 162 159 158 157 154 152
95 121 235 249 268 280 325 324 310 298 284 288 273 261 269 292 313 319 316 316 315 312 297 272 273 265 253 232 217 203 199 197 194 189 184 178 178 177 175 171 170 170 167 165 162 161 159 155 152
110 195 235 250 274 290 304 304 306 312 302 294 294 291 289 295 308 309 305 300 297 294 288 269 256 250 246 242 224 212 204 196 193 187 183 180 176 176 175 172 171 170 168 166 165 163 160 154 149
175 219 268 285 290 293 296 296 289 283 282 279 285 294 297 298 300 297 290 283 273 266 272 267 256 245 237 235 225 213 204 195 191 186 181 179 173 170 170 169 170 169 167 165 165 160 158 155 153
297 271 278 286 296 297 289 288 281 260 263 270 277 283 285 285 285 285 285 282 278 271 267 269 262 253 241 233 233 219 202 197 191 187 183 176 177 175 174 174 170 168 166 162 161 160 160 161 162
284 286 293 290 295 286 283 275 274 269 270 277 281 284 281 276 277 278 280 277 273 270 266 261 263 256 250 239 234 235 210 202 194 188 187 182 182 180 178 178 175 172 168 168 165 165 166 166 167
272 289 295 292 289 284 280 281 272 270 277 283 284 284 282 279 278 285 291 285 280 274 269 257 255 253 247 241 232 230 218 207 198 192 192 189 185 183 180 179 180 178 175 173 170 170 170 171 168
302 307 305 283 281 277 294 289 258 273 292 291 289 288 290 288 286 283 284 284 279 275 271 258 248 244 242 237 229 228 221 210 204 197 193 192 191 186 183 181 182 180 177 174 170 169 165 167 168
338 336 307 288 293 294 313 285 282 291 300 295 295 294 292 292 291 288 287 288 285 279 276 268 253 247 242 238 231 222 221 215 209 200 195 194 196 192 184 184 183 180 176 177 174 171 168 170 168
0 312 287 299 285 299 291 281 291 303 299 295 297 297 299 303 302 299 293 291 289 283 278 277 257 244 242 237 233 225 222 217 211 202 198 196 198 196 187 188 184 179 177 179 178 174 170 169 168
286 288 283 290 291 299 287 281 294 304 301 298 299 302 303 305 302 301 304 299 293 288 282 278 274 253 244 236 233 230 229 219 212 207 202 198 199 198 189 189 185 178 177 179 178 172 169 167 165
261 273 284 284 290 299 282 287 296 302 310 309 310 312 311 307 305 312 311 309 303 303 301 289 281 265 244 231 224 223 229 222 216 212 207 201 200 201 191 191 186 181 182 182 174 170 167 165 156
279 286 285 293 298 302 287 287 287 290 293 299 308 313 317 321 328 326 327 330 318 308 310 298 278 272 253 232 225 221 227 228 216 214 213 205 200 201 196 186 189 184 181 180 178 169 165 167 164
286 265 274 291 312 305 306 299 286 303 307 321 318 310 314 324 325 324 330 330 327 323 315 301 284 275 261 245 230 230 233 236 220 214 214 207 201 202 197 188 189 186 183 184 183 177 167 170 173
283 259 276 292 310 298 340 301 294 301 317 326 322 322 322 320 323 327 336 337 331 324 319 309 290 281 268 250 229 222 231 235 231 221 219 208 205 201 196 190 189 189 185 184 186 179 172 169 174
255 285 287 287 270 286 275 246 290 316 313 314 315 316 319 323 326 329 337 330 328 326 326 318 303 285 270 250 235 227 233 241 237 225 220 211 207 198 195 193 191 189 187 185 186 180 175 176 176
297 329 322 5 59 299 257 225 289 288 287 306 313 318 320 325 327 329 333 330 332 335 330 324 318 300 278 258 241 234 232 235 234 228 219 208 204 197 196 195 193 189 187 187 187 184 179 179 177
33 36 1 354 356 266 287 262 258 264 276 287 304 312 319 326 333 331 332 332 334 336 332 326 321 310 293 265 251 241 240 231 227 232 221 213 204 199 196 197 193 189 188 186 185 185 183 180 181
272 126 145 265 272 292 302 258 259 264 284 294 298 309 323 330 331 331 327 325 327 327 326 327 326 318 308 286 265 251 247 237 233 231 220 215 207 202 198 194 193 191 188 185 185 185 184 183 185
163 202 188 187 278 280 272 277 294 284 302 304 308 319 320 323 326 328 329 329 327 325 321 319 322 324 315 301 279 260 249 247 239 226 218 216 208 202 196 192 193 191 187 184 183 187 185 183 187
173 161 97 127 282 283 288 275 266 291 297 300 309 310 312 320 324 328 328 327 325 320 318 324 321 318 317 307 291 284 271 254 237 216 220 221 205 199 192 191 193 189 186 183 184 186 183 183 187
165 156 160 182 204 233 284 274 237 252 270 286 294 298 305 314 317 320 323 325 322 325 327 328 325 324 326 320 308 298 276 253 232 217 218 213 203 195 194 193 191 189 186 185 185 186 183 184 186
195 193 168 200 248 224 254 273 249 250 268 282 293 301 306 308 311 316 321 326 329 328 328 328 324 326 328 325 314 302 277 250 229 219 214 212 207 199 197 194 191 191 188 186 186 186 185 186 188
Height
1500 1501 1503 1505 1508 1513 1511 1502 1495 1491 1489 1486 1485 1485 1484 1486 1487 1491 1485 1481 1481 1481 1481 1482 1483 1485 1486 1487 1489 1490 1492 1494 1497 1499 1501 1502 1504 1506 1507 1509 1510 1512 1513 1514 1516 1516 1517 1518 1519
1500 1501 1504 1504 1511 1515 1508 1497 1493 1489 1487 1485 1484 1483 1482 1482 1483 1483 1482 1481 1480 1481 1481 1481 1483 1484 1485 1487 1488 1490 1491 1493 1496 1498 1500 1501 1503 1505 1506 1508 1510 1511 1512 1514 1515 1516 1517 1517 1518
1499 1501 1503 1505 1508 1507 1501 1491 1490 1488 1487 1486 1484 1483 1483 1483 1483 1482 1482 1480 1480 1480 1480 1481 1482 1483 1485 1486 1487 1489 1490 1492 1494 1496 1498 1500 1502 1504 1506 1507 1509 1510 1512 1513 1514 1515 1516 1517 1518
1500 1502 1503 1506 1502 1497 1494 1490 1489 1488 1486 1486 1485 1483 1483 1484 1483 1482 1480 1479 1479 1479 1479 1480 1481 1482 1484 1485 1486 1488 1489 1491 1493 1495 1497 1499 1501 1502 1504 1506 1508 1509 1511 1512 1513 1514 1515 1516 1517
1500 1501 1505 1505 1500 1495 1492 1490 1489 1489 1488 1487 1487 1484 1481 1482 1481 1480 1478 1477 1477 1477 1478 1479 1480 1481 1482 1483 1485 1486 1488 1490 1491 1493 1495 1497 1499 1501 1503 1505 1506 1508 1509 1511 1512 1513 1514 1516 1517
1500 1501 1508 1505 1499 1494 1492 1491 1490 1490 1489 1487 1487 1484 1479 1479 1477 1476 1476 1475 1475 1475 1475 1477 1478 1479 1480 1481 1482 1484 1486 1487 1490 1491 1493 1495 1497 1499 1501 1503 1505 1506 1508 1509 1511 1512 1513 1515 1516
1501 1504 1505 1502 1499 1495 1493 1492 1492 1491 1489 1488 1487 1483 1477 1475 1475 1474 1473 1472 1472 1472 1472 1473 1475 1477 1478 1478 1480 1481 1483 1485 1487 1489 1491 1493 1495 1497 1499 1501 1503 1504 1506 1508 1509 1511 1512 1514 1515
1500 1504 1503 1502 1499 1496 1494 1492 1492 1491 1488 1487 1486 1483 1478 1474 1472 1470 1470 1469 1468 1469 1469 1470 1471 1473 1474 1476 1477 1478 1479 1481 1484 1486 1488 1490 1492 1494 1496 1498 1500 1502 1504 1506 1508 1509 1511 1513 1514
1500 1506 1505 1500 1498 1495 1493 1491 1490 1488 1485 1483 1482 1481 1478 1473 1470 1468 1466 1464 1464 1465 1466 1466 1467 1468 1470 1472 1473 1474 1476 1477 1480 1482 1485 1487 1489 1491 1493 1495 1498 1500 1502 1504 1506 1508 1510 1511 1513
1499 1505 1500 1496 1495 1494 1492 1491 1488 1486 1482 1479 1476 1474 1472 1470 1468 1466 1463 1461 1460 1460 1461 1462 1463 1464 1466 1467 1468 1470 1472 1473 1475 1478 1480 1483 1485 1487 1490 1492 1495 1497 1500 1502 1504 1506 1508 1510 1511
1498 1499 1496 1494 1493 1492 1490 1488 1486 1484 1480 1476 1473 1469 1468 1465 1463 1462 1460 1459 1458 1456 1456 1457 1458 1459 1460 1461 1463 1464 1466 1468 1470 1473 1475 1478 1481 1483 1486 1489 1491 1494 1496 1499 1501 1503 1505 1507 1509
1498 1496 1495 1492 1491 1489 1487 1485 1482 1480 1475 1472 1470 1467 1464 1462 1459 1457 1455 1454 1453 1452 1450 1451 1452 1453 1454 1456 1457 1459 1460 1462 1465 1467 1470 1473 1475 1478 1481 1484 1487 1489 1492 1494 1497 1500 1503 1505 1508
1497 1495 1492 1490 1488 1486 1483 1481 1478 1472 1470 1468 1465 1463 1460 1457 1454 1452 1451 1449 1448 1447 1446 1445 1446 1447 1448 1450 1451 1453 1454 1456 1459 1461 1464 1467 1470 1472 1476 1479 1482 1485 1487 1490 1494 1497 1500 1503 1505
1496 1494 1491 1487 1484 1481 1479 1475 1474 1466 1465 1464 1461 1458 1455 1452 1450 1447 1445 1443 1442 1441 1440 1439 1440 1441 1442 1443 1445 1446 1448 1450 1452 1455 1458 1461 1464 1467 1470 1474 1477 1480 1483 1486 1489 1493 1497 1500 1503
1495 1494 1490 1484 1481 1479 1477 1472 1468 1463 1462 1459 1456 1453 1449 1446 1444 1442 1439 1437 1436 1434 1434 1433 1433 1434 1435 1436 1438 1440 1441 1443 1446 1448 1451 1455 1458 1461 1464 1468 1471 1475 1478 1482 1485 1489 1493 1497 1500
1496 1497 1495 1485 1480 1477 1480 1473 1463 1460 1458 1455 1451 1448 1444 1441 1438 1436 1433 1431 1429 1427 1426 1426 1426 1427 1428 1429 1431 1432 1435 1436 1438 1441 1444 1447 1451 1455 1458 1461 1465 1469 1473 1477 1480 1484 1488 1492 1496
1500 1503 1496 1486 1479 1477 1477 1470 1459 1457 1455 1450 1447 1444 1440 1436 1433 1431 1428 1425 1423 1421 1420 1419 1420 1420 1421 1422 1423 1424 1427 1429 1431 1434 1437 1440 1444 1448 1451 1455 1459 1463 1467 1471 1475 1479 1483 1487 1492
1503 1502 1495 1488 1479 1476 1474 1465 1456 1452 1451 1447 1444 1440 1436 1432 1428 1425 1422 1420 1418 1416 1414 1413 1413 1414 1414 1415 1416 1418 1420 1422 1424 1426 1429 1433 1437 1442 1445 1449 1453 1457 1461 1465 1470 1473 1478 1483 1488
1497 1497 1494 1483 1476 1474 1468 1460 1453 1448 1446 1443 1440 1437 1433 1429 1424 1420 1417 1414 1411 1409 1408 1406 1406 1407 1408 1408 1409 1410 1412 1413 1416 1419 1422 1426 1430 1435 1438 1442 1446 1450 1454 1458 1463 1468 1473 1478 1484
1494 1495 1490 1479 1472 1471 1463 1456 1449 1445 1443 1441 1438 1435 1430 1425 1419 1415 1412 1409 1406 1404 1402 1401 1401 1400 1401 1402 1402 1404 1405 1406 1408 1411 1414 1418 1423 1427 1431 1434 1438 1441 1447 1452 1457 1462 1466 1472 1477
1490 1491 1486 1481 1472 1468 1466 1456 1447 1441 1440 1438 1435 1432 1428 1423 1418 1414 1409 1405 1402 1399 1397 1396 1395 1395 1394 1395 1396 1397 1399 1400 1401 1403 1406 1410 1415 1419 1423 1427 1432 1435 1440 1444 1450 1454 1459 1464 1472
1489 1482 1480 1477 1480 1479 1472 1469 1448 1442 1438 1435 1432 1429 1424 1419 1415 1411 1406 1402 1399 1396 1393 1391 1389 1388 1387 1387 1388 1389 1391 1391 1393 1396 1399 1402 1406 1410 1416 1420 1425 1429 1433 1438 1443 1447 1453 1458 1464
1484 1478 1477 1475 1478 1481 1473 1476 1453 1443 1439 1433 1430 1426 1422 1417 1414 1409 1405 1401 1398 1394 1390 1387 1384 1382 1381 1382 1383 1384 1385 1386 1388 1390 1392 1394 1398 1403 1408 1412 1418 1423 1426 1431 1437 1441 1447 1453 1457
1481 1479 1477 1479 1483 1486 1471 1472 1458 1447 1439 1433 1428 1424 1420 1416 1412 1408 1403 1399 1395 1390 1387 1383 1380 1378 1376 1376 1377 1377 1379 1380 1382 1383 1384 1386 1391 1395 1400 1406 1411 1416 1420 1425 1430 1435 1441 1446 1453
1484 1491 1495 1496 1500 1488 1466 1463 1453 1439 1435 1432 1428 1423 1419 1415 1410 1405 1401 1397 1392 1387 1384 1379 1376 1373 1371 1371 1371 1371 1372 1373 1374 1376 1378 1380 1383 1387 1393 1399 1404 1408 1414 1419 1425 1430 1434 1441 1447
1486 1491 1502 1505 1499 1481 1466 1459 1445 1435 1431 1429 1426 1422 1418 1414 1409 1404 1400 1395 1390 1386 1381 1376 1372 1369 1368 1366 1366 1365 1366 1367 1369 1371 1373 1375 1377 1380 1386 1392 1397 1402 1408 1413 1419 1424 1430 1436 1441
1486 1489 1489 1497 1497 1493 1470 1456 1442 1432 1429 1426 1424 1420 1416 1412 1407 1402 1397 1393 1388 1384 1379 1374 1370 1367 1364 1362 1361 1361 1361 1362 1364 1365 1367 1369 1372 1376 1379 1385 1391 1396 1402 1407 1413 1418 1424 1430 1436
1481 1485 1494 1498 1500 1492 1475 1462 1447 1435 1429 1425 1422 1418 1414 1410 1405 1401 1396 1391 1386 1382 1377 1371 1368 1365 1361 1359 1358 1357 1357 1358 1358 1360 1362 1364 1367 1369 1373 1379 1385 1390 1395 1401 1408 1413 1419 1425 1431
1483 1485 1487 1492 1494 1493 1480 1454 1435 1432 1426 1424 1420 1416 1412 1408 1404 1399 1395 1390 1385 1379 1374 1369 1365 1361 1358 1355 1354 1354 1354 1355 1355 1356 1357 1359 1361 1363 1368 1374 1379 1383 1389 1396 1402 1408 1414 1419 1425
1477 1479 1484 1490 1490 1487 1480 1450 1428 1426 1422 1420 1417 1414 1410 1406 1402 1397 1392 1387 1383 1377 1372 1368 1364 1359 1356 1353 1351 1350 1350 1350 1351 1350 1352 1354 1356 1360 1363 1368 1373 1377 1384 1390 1396 1402 1408 1414 1420